Погода в Руггелле

Лихтенштейн     47°14′21″N   9°31′33″E
темп.,
°C
ветер,
м/с
пор.,
м/с
влажн.,
%
обл.,
%
осадки,
мм/ч
давл.,
гПа
погр.,
м
5 марта, пт
пт501:00+2ю1297100 7.8 1019104
04:00+1ююз1198100 6.9 101991
07:00+2ю0098100 8.4 102056
10:00+2с1298100 2.3 1020215
13:00+1ссв2499100 5.3 1020207
16:00+1ссв3498100 1.8 1021292
19:000ссв2498100 2.7 1023250
22:00−1с1297100 0.3 1027186
6 марта, сб
сб601:00−1св1198100 0.3 1028101
04:00−2в1196100 0.0 102862
07:00−5ююв229079 0.0 103031
10:00+1в11720 0.0 1028351
13:00+4св11690 0.0 1028627
16:00+4с11750 0.0 1027593
19:00−1ю12910 0.0 102822
22:00−1ю23931 0.0 102936
7 марта, вс
вс701:00−3ю33850 0.0 102966
04:00−3ю33800 0.0 102879
07:00−3ю34780 0.0 102780
10:00+4ю12672 0.0 1025257
13:00+8зсз016615 0.1 1022962
16:00+6з117877 0.6 1020511
19:00+1юз229354 1.1 102132
22:00+2юз119797 1.1 102139
8 марта, пн
пн801:00+1ю119898 4.4 102162
04:000ю1298100 1.0 1020114
07:000всв0199100 1.9 102199
10:00+1св2299100 0.4 1020158
13:00+2ссв2289100 0.6 1019409
16:00+3с228199 0.3 1018671
19:00−1ссз118898 0.4 102125
22:00−3юз118943 0.0 102222
9 марта, вт
вт901:00−3ююз129065 0.0 102327
04:00−4ю119271 0.0 102221
07:00−4ю119081 0.0 102321
10:00+2всв117527 0.0 1022515
13:00+4св226414 0.0 1021949
16:00+4ссв22633 0.0 10201067
19:00−2ююз00822 0.0 102321
22:00−2ю23870 0.0 102537